Weather History for Cut Bank, MT

Change the Weather History Date:

Friday, February 1, 2013

  Actual Average Record
Temperature  
Mean Temperature 38 °F 23 °F  
Max Temperature 49 °F 34 °F 62 °F (1992)
Min Temperature 27 °F 12 °F -34 °F (1989)
Degree Days  
Heating Degree Days 27 42  
Month to date heating degree days 27 42  
Since 1 July heating degree days 4770 4960  
Cooling Degree Days 0 0  
Month to date cooling degree days 0 0  
Year to date cooling degree days 0 0  
Moisture  
Dew Point 22 °F    
Average Humidity 56    
Maximum Humidity 81    
Minimum Humidity 31    
Precipitation  
Precipitation 0.00 in 0.01 in 0.13 in (1911)
Month to date precipitation 0.00 0.01  
Year to date precipitation 0.42 0.21  
Snow  
Snow 0.00 in - - ()
Snow Depth 0.00 in    
Sea Level Pressure  
Sea Level Pressure 30.07 in    
Wind  
Wind Speed 19 mph (West)    
Max Wind Speed 29 mph    
Max Gust Speed 36 mph    
Visibility 10 miles    
Events      
T = Trace of Precipitation, MM = Missing Value Source: NWS Daily Summary

Daily Weather History Graph

Daily Weather History Graph

Search for Another Location

Airport:

Trip Planner

Search our weather history database for the weather conditions in past years. The results will help you decide how hot, cold, wet, or windy it might be!

Date:

Astronomy

Feb. 01, 2013 Rise Set
Actual Time 7:58 AM MST 5:28 PM MST
Civil Twilight 7:24 AM MST 6:02 PM MST
Nautical Twilight 6:47 AM MST 6:39 PM MST
Astronomical Twilight 6:10 AM MST 7:16 PM MST
Moon No Moon Rise 10:00 AM MST (2/1)
Length of Visible Light 10h 37m
Length of Day
9h 30m
Waning Gibbous, 69% of the Moon is Illuminated
Feb 1
Waning Gibbous
Feb 3
Last Quarter
Feb 10
New
Feb 17
First Quarter
Feb 25
Full

Hourly Weather History & Observations

Time (MST) Temp. Windchill Dew Point Humidity Pressure Visibility Wind Dir Wind Speed Gust Speed Precip Events Conditions
12:56 AM 37.0 °F 27.4 °F 26.1 °F 65% 29.96 in 10.0 mi West 17.3 mph - N/A   Clear
1:56 AM 37.9 °F 28.2 °F 26.1 °F 62% 29.95 in 10.0 mi West 18.4 mph - N/A   Overcast
2:56 AM 35.1 °F 26.9 °F 25.0 °F 67% 29.98 in 10.0 mi West 11.5 mph - N/A   Mostly Cloudy
3:56 AM 36.0 °F 28.5 °F 25.0 °F 64% 29.97 in 10.0 mi West 10.4 mph - N/A   Overcast
4:56 AM 35.6 °F 27.1 °F 26.6 °F 70% 29.93 in 10.0 mi West 12.7 mph - N/A   Overcast
5:56 AM 32.0 °F 22.1 °F 23.0 °F 69% 30.01 in 10.0 mi West 13.8 mph - N/A   Clear
6:56 AM 28.9 °F 19.8 °F 23.0 °F 78% 30.04 in 10.0 mi West 10.4 mph - N/A   Scattered Clouds
7:56 AM 27.0 °F 16.1 °F 21.9 °F 81% 30.05 in 10.0 mi West 12.7 mph - N/A   Clear
8:56 AM 36.0 °F 25.3 °F 23.0 °F 59% 30.04 in 10.0 mi West 19.6 mph - N/A   Clear
9:56 AM 42.1 °F 33.3 °F 23.0 °F 47% 30.03 in 10.0 mi West 19.6 mph 27.6 mph N/A   Clear
10:56 AM 45.0 °F 36.0 °F 23.0 °F 42% 30.04 in 10.0 mi West 25.3 mph 31.1 mph N/A   Clear
11:56 AM 46.9 °F - 19.9 °F 34% 30.06 in 10.0 mi West 25.3 mph 29.9 mph N/A   Partly Cloudy
12:56 PM 48.0 °F - 19.9 °F 33% 30.05 in 10.0 mi West 19.6 mph 29.9 mph N/A   Overcast
1:56 PM 46.0 °F 38.5 °F 19.0 °F 34% 30.06 in 10.0 mi West 19.6 mph 33.4 mph N/A   Clear
2:56 PM 45.0 °F 36.4 °F 18.0 °F 34% 30.07 in 10.0 mi WNW 23.0 mph 28.8 mph N/A   Clear
3:56 PM 44.1 °F 35.7 °F 19.0 °F 37% 30.09 in 10.0 mi West 20.7 mph 28.8 mph N/A   Clear
4:56 PM 41.0 °F 32.2 °F 19.9 °F 43% 30.13 in 10.0 mi West 18.4 mph - N/A   Clear
5:56 PM 35.1 °F 24.1 °F 21.0 °F 57% 30.17 in 10.0 mi West 19.6 mph - N/A   Clear
6:56 PM 34.0 °F 22.4 °F 21.0 °F 59% 30.19 in 10.0 mi West 20.7 mph - N/A   Clear
7:56 PM 34.0 °F 22.4 °F 21.0 °F 59% 30.21 in 10.0 mi West 20.7 mph - N/A   Clear
8:56 PM 33.1 °F 21.5 °F 21.0 °F 61% 30.19 in 10.0 mi WSW 19.6 mph - N/A   Clear
9:56 PM 34.0 °F 21.8 °F 21.9 °F 61% 30.19 in 10.0 mi West 23.0 mph - N/A   Clear
10:56 PM 35.1 °F 22.5 °F 21.9 °F 59% 30.18 in 10.0 mi West 26.5 mph 33.4 mph N/A   Clear
11:56 PM 35.1 °F 22.5 °F 21.9 °F 59% 30.17 in 10.0 mi West 26.5 mph - N/A   Clear